Location: General Nathan Twining Observatory
(34.5931°N, 106.8201°W)
Time: 19:03:13
(UTC-07:00)

ADEOS II - Visible Passes

Search period start: 07 February 2016 00:00
Search period end: 17 February 2016 00:00
Orbit: 800 x 802 km, 98.3° (Epoch: 07 February)

Date Brightness Start Highest point End Pass type
(mag) Time Alt. Az. Time Alt. Az. Time Alt. Az.
07 Feb 1.9 05:00:47 10° N 05:06:04 83° WNW 05:11:19 10° SSW visible
08 Feb 2.7 04:34:36 10° NNE 04:39:46 54° E 04:44:54 10° S visible
08 Feb 3.5 06:15:51 10° NNW 06:18:59 16° WNW 06:22:09 10° WSW visible
09 Feb 3.8 04:08:49 10° NE 04:13:22 30° E 04:17:55 10° SSE visible
09 Feb 2.9 05:48:32 10° NNW 05:52:59 28° WNW 05:57:24 10° SW visible
10 Feb 4.7 03:43:41 10° NE 03:46:54 16° E 03:50:05 10° SE visible
10 Feb 2.2 05:21:46 10° N 05:26:51 51° WNW 05:31:55 10° SSW visible
11 Feb 2.0 04:55:21 10° NNE 05:00:38 89° ESE 05:05:54 10° SSW visible
12 Feb 2.9 04:29:14 10° NNE 04:34:19 48° E 04:39:23 10° S visible
12 Feb 3.4 06:10:09 10° NNW 06:13:37 18° WNW 06:17:05 10° WSW visible
13 Feb 4.0 04:03:31 10° NE 04:07:55 26° E 04:12:17 10° SSE visible
13 Feb 2.8 05:42:59 10° N 05:47:35 31° WNW 05:52:10 10° SW visible
14 Feb 4.8 03:38:38 10° ENE 03:41:25 14° E 03:44:11 10° SE visible
14 Feb 2.1 05:16:17 10° N 05:21:26 57° WNW 05:26:34 10° SSW visible
15 Feb 2.1 04:49:55 10° NNE 04:55:12 80° ESE 05:00:28 10° S visible
16 Feb 3.1 04:23:52 10° NNE 04:28:52 43° E 04:33:51 10° S visible
16 Feb 3.3 06:04:30 10° NNW 06:08:14 20° WNW 06:11:58 10° WSW visible
